Date,TemperatureHighF,TemperatureAvgF,TemperatureLowF,DewpointHighF,DewpointAvgF,DewpointLowF,HumidityHigh,HumidityAvg,HumidityLow,PressureMaxIn,PressureMinIn,WindSpeedMaxMPH,WindSpeedAvgMPH,GustSpeedMaxMPH,PrecipitationSumIn
2013-1-1,42,38,36,37,36,34,98,92,76,30.53,30.40,6,4,0,0.00
2013-1-2,44,37,35,38,34,33,97,89,67,30.41,30.23,8,3,0,0.00
2013-1-3,42,36,32,38,34,32,98,93,81,30.23,30.11,7,4,0,0.00
2013-1-4,42,40,35,42,40,35,99,98,98,30.32,30.15,8,4,0,0.00
2013-1-5,47,43,41,44,42,38,99,94,73,30.19,30.08,13,5,0,0.00
2013-1-6,46,44,41,44,41,37,99,88,73,30.14,29.94,14,6,0,0.00
2013-1-7,54,47,43,46,43,38,98,87,66,30.11,29.77,23,10,0,0.00
2013-1-8,53,43,39,49,41,38,99,94,81,30.14,29.62,14,5,0,0.00
2013-1-9,48,45,37,44,38,33,87,74,64,29.92,29.65,23,12,0,0.00
2013-1-10,43,38,35,35,32,29,95,78,58,30.17,29.93,11,6,0,0.00
2013-1-11,40,36,33,31,28,24,87,73,54,30.35,30.17,8,4,0,0.00
2013-1-12,40,33,30,31,28,25,91,80,65,30.47,30.35,7,5,0,0.00
2013-1-13,38,35,31,34,30,27,89,84,74,30.50,30.45,7,4,0,0.00
2013-1-14,40,37,35,38,35,31,98,92,82,30.58,30.47,6,3,0,0.00
2013-1-15,42,39,36,40,38,35,99,95,85,30.72,30.60,6,3,0,0.00
2013-1-16,40,38,37,37,34,33,88,85,83,30.71,30.56,7,5,0,0.00
2013-1-17,43,38,35,38,36,34,98,92,79,30.56,30.31,9,5,0,0.00
2013-1-18,41,38,35,38,36,34,99,93,86,30.36,30.29,9,6,0,0.00
2013-1-19,41,38,36,38,36,35,97,92,87,30.41,30.37,9,5,0,0.00
2013-1-20,43,36,33,40,36,32,99,97,88,30.42,30.31,6,3,0,0.00
2013-1-21,35,34,32,35,34,32,100,99,99,30.30,30.16,6,2,0,0.00
2013-1-22,39,36,31,39,35,31,100,100,98,30.17,29.94,6,3,0,0.00
2013-1-23,44,40,37,42,39,37,100,98,85,30.06,29.83,7,2,0,0.00
2013-1-24,44,40,33,42,39,33,99,97,86,30.19,30.00,7,3,0,0.00
2013-1-25,49,42,37,46,41,37,100,97,83,30.06,29.91,9,3,0,0.00
2013-1-26,46,42,39,44,41,39,100,98,88,30.02,29.84,7,2,0,0.00
2013-1-27,45,40,35,42,39,35,99,96,84,30.03,29.95,6,2,0,0.00
2013-1-28,44,41,37,40,38,37,99,91,79,30.04,29.98,10,5,0,0.00
2013-1-29,46,43,40,44,41,38,99,92,81,30.29,30.06,8,2,0,0.00
2013-1-30,45,44,42,45,43,42,100,99,98,30.38,30.29,6,3,0,0.00
2013-1-31,53,47,42,49,46,42,100,95,83,30.36,30.27,11,6,0,0.00